EST,Max TemperatureF,Mean TemperatureF,Min TemperatureF,Max Dew PointF,MeanDew PointF,Min DewpointF,Max Humidity, Mean Humidity, Min Humidity, Max Sea Level PressureIn, Mean Sea Level PressureIn, Min Sea Level PressureIn, Max VisibilityMiles, Mean VisibilityMiles, Min VisibilityMiles, Max Wind SpeedMPH, Mean Wind SpeedMPH, Max Gust SpeedMPH,PrecipitationIn, CloudCover, Events, WindDirDegrees
2012-2-1,68,57,46,52,40,29,100,69,37,30.20,30.13,30.04,10,10,5,17,9,22,0.10,5,Rain,227
2012-2-2,66,53,39,52,44,27,100,63,25,30.32,30.07,29.97,10,7,2,22,8,25,0.04,4,Rain,263
2012-2-3,56,43,29,32,29,26,92,62,32,30.49,30.41,30.32,10,10,10,10,3,18,0.00,0,,13
2012-2-4,53,42,31,45,39,27,100,75,50,30.34,30.17,30.06,10,7,1,14,5,18,0.24,6,Rain,216
2012-2-5,40,34,27,38,35,27,100,93,85,30.25,30.13,30.02,10,8,2,14,6,17,0.10,6,Rain,38
2012-2-6,50,38,25,34,29,24,100,77,53,30.29,30.22,30.13,10,6,0,8,2,12,0.00,1,Fog,221
2012-2-7,57,42,26,31,28,24,100,65,30,30.18,30.14,30.11,10,10,10,9,3,13,0.00,0,,296
2012-2-8,43,35,26,35,30,25,92,74,55,30.22,30.16,30.12,10,10,8,12,4,15,T,5,Rain,336
2012-2-9,49,39,28,27,24,21,78,56,34,30.29,30.22,30.18,10,10,10,14,4,21,0.00,2,,321
2012-2-10,49,37,24,38,31,22,92,77,61,30.19,30.06,29.86,10,10,7,15,3,20,T,3,Rain,213
2012-2-11,46,34,22,36,20,-1,100,65,29,30.05,29.85,29.74,10,9,4,28,11,38,0.00,4,,309
2012-2-12,40,28,15,11,6,0,56,41,25,30.24,30.16,30.06,10,10,10,26,11,36,0.00,0,,286
2012-2-13,49,33,16,19,14,10,77,49,21,30.27,30.18,30.09,10,10,10,12,4,17,0.00,1,,239
2012-2-14,53,45,37,36,27,16,73,54,34,30.09,30.03,29.96,10,10,10,22,7,28,0.00,7,,217
2012-2-15,61,46,30,36,31,26,96,62,27,30.27,30.20,30.07,10,10,9,12,3,14,0.00,1,,294
2012-2-16,55,49,42,47,43,30,100,75,50,30.26,30.09,30.01,10,5,0,9,3,14,0.27,7,Fog-Rain,165
2012-2-17,60,51,41,47,37,28,100,66,32,30.10,30.06,30.02,10,8,1,13,5,21,0.00,2,,307
2012-2-18,62,48,33,38,31,23,89,57,25,30.13,30.04,29.95,10,10,10,16,3,21,0.00,2,,213
2012-2-19,51,42,32,39,30,23,96,71,45,29.99,29.90,29.79,10,4,0,21,13,29,0.45,8,Fog-Rain-Snow,37
2012-2-20,48,37,26,30,27,24,100,71,42,30.34,30.20,29.98,10,10,7,13,4,16,0.00,1,,336
2012-2-21,55,38,21,40,30,19,100,72,44,30.33,30.15,29.95,10,9,6,23,6,28,0.00,1,,206
2012-2-22,66,50,33,47,38,30,100,64,28,29.94,29.78,29.54,10,8,2,23,7,32,0.17,2,Rain,219
2012-2-23,70,55,39,52,46,37,100,77,53,29.69,29.62,29.52,10,7,0,14,6,20,0.03,3,Fog-Rain-Thunderstorm,221
2012-2-24,79,62,44,63,51,21,84,60,35,29.84,29.53,29.38,10,9,1,29,14,41,0.36,3,Rain-Thunderstorm,246
2012-2-25,49,41,32,23,16,11,59,41,23,30.32,30.07,29.87,10,10,10,31,14,45,0.00,2,,286
2012-2-26,52,37,21,20,17,15,81,53,24,30.50,30.42,30.34,10,10,10,12,3,23,0.00,0,,197
2012-2-27,53,40,26,45,37,20,100,74,48,30.45,30.37,30.29,10,7,0,12,4,25,0.03,4,Fog-Rain,209
2012-2-28,65,47,29,42,33,23,100,60,19,30.42,30.36,30.27,10,5,0,8,3,,0.00,1,Fog,222
2012-2-29,64,53,42,59,50,33,96,78,59,30.25,30.01,29.76,10,8,2,17,7,22,0.33,7,Rain-Thunderstorm,211